Location: Crescent
(42.8242°N, 73.7329°W)
Time: 07:20:43
(UTC+00:00)

Transit 4A - Pass Details

Date: 22 February 2026
Orbit: 864 x 977 km, 66.8° (Epoch: 9 March)

Event Time Altitude Azimuth Distance (km) Brightness Sun altitude
Rises 16:54:13 0° 326° (NW) 3,620 10.6 37.1°
Reaches altitude 10° 16:56:47 10° 322° (NW) 2,686 10.0 37.1°
Maximum altitude 17:02:56 59° 245° (WSW) 1,107 9.1 37.2°
Drops below altitude 10° 17:09:10 10° 167° (SSE) 2,714 11.6 37.2°
Sets 17:11:45 0° 164° (SSE) 3,660 11.9 37.2°
